TOURFACTS.DK  
Stats and Facts from Tour de France.

Tour de France 2019 starts in 348 days
  Riders   Stages   Teams   Summits   Yearly  


 
Search by year

After 2018 - Stage 14:
 15000 starters.
  5163 different riders.
  639 teams.
  2246 stages.
  456 restdays.
  441957.60 km.
  5678 abandonnees.


Top 3
GC
Christopher Froome86:20:55
Rigoberto Urán86:21:49
Romain Bardet86:23:15
Climb
Warren Barguil169 pt.
Primoz Roglic80 pt.
Thomas De Gendt64 pt.
Sprint
Michael Matthews359 pt.
André Greipel234 pt.
Edvald Boasson Hagen220 pt.
Youth
Simon Yates86:27:09
Louis Meintjes86:29:15
Emanuel Buchmann86:54:16
Facts from Tour de France 1994
  |   Stages.  |   Stage winners.  |   Days in yellow  |   Average speed.  |   Route.  |   Teams.  |   All riders.  |   Rookies.  |  

  |   Withdrawls.  |   GC.  |   Polka  |   Green  |   White  |   Summits. (In tour)  |   Miscellaneous.  |  

Stage 16 on July 19th. 1994
         Owning:    Miguel Indurain    
Pick a stage:  Pro 1 2 3 4 5 6 7 8 9 10 11 12 13 14 15 16 17 18 19 20 21
From: Valréas    To: Alpe-d´HuezDist:224.50 km.
Cat: 4Côte d'AleyracITARoberto Conti
5 points
 
Cat: 4Côte de Puy-Saint-MartinCOLAngel Ochoa
5 points
 
Cat: 2MenaeFRARonan Pensec
20 points
 
Cat: 2Col d'OrnonCOLAngel Ochoa
20 points
 
Cat: HAlpe d'HuezITARoberto Conti
40 points
 

Average speed for all riders in stage:  35,004 km./hr.
    Place:Name:Team:Time:Km/h:
ITARoberto ContiITALampre-Panaria06:06:45  +  00:00:00=36,728 
COLHernán BuenahoraESPKelme-Avianca06:08:47  +  00:02:02=36,526 
GERUdo BöltsDEUTelecom06:10:34  +  00:03:49=36,350 
4 ITAAlberto ElliITAGB-MG Maglificio06:10:34  +  00:03:49=36,350 
5 ITAGiancarlo PeriniITAZG Mobili-Selle Italia06:10:48  +  00:04:03=36,327 
6 SUIJörg MüllerBELMapei-Clas06:11:24  +  00:04:39=36,268 
7 ITABruno CenghialtaITAGewiss-Ballan06:11:50  +  00:05:05=36,226 
8 ITAMarco PantaniITACarrera Jeans-Tassoni06:12:26  +  00:05:41=36,168 
9 FRARoberto TorresESPFestina-Andorra06:12:40  +  00:05:55=36,145 
10 COLAngel OchoaESPKelme-Avianca06:14:00  +  00:07:15=36,016 
11 MARRichard VirenqueESPFestina-Andorra06:14:06  +  00:07:21=36,006 
12 ESPMiguel IndurainESPBanesto06:14:41  +  00:07:56=35,950 
13 FRALuc LeblancESPFestina-Andorra06:14:41  +  00:07:56=35,950 
14 URSVladimir PoulnikovITACarrera Jeans-Tassoni06:14:48  +  00:08:03=35,939 
15 FRARonan PensecFRANovemail-Histor-Laser Computer06:15:12  +  00:08:27=35,901 
16 URSPiotr UgrumovITAGewiss-Ballan06:15:12  +  00:08:27=35,901 
17 SUIAlex ZülleESPO.N.C.E.06:15:12  +  00:08:27=35,901 
18 ITAOscar PelliccioliITAPolti-Vaporetto06:15:54  +  00:09:09=35,834 
19 FRAPascal LinoESPFestina-Andorra06:15:54  +  00:09:09=35,834 
20 FRAThierry MarieFRACastorama06:15:54  +  00:09:09=35,834 
21 ESPFernando EscartinBELMapei-Clas06:15:54  +  00:09:09=35,834 
22 FRAArmand De Las CuevasFRACastorama06:15:54  +  00:09:09=35,834 
23 DENBjarne RiisITAGewiss-Ballan06:16:32  +  00:09:47=35,774 
24 DDRGerd AudehmDEUTelecom06:16:32  +  00:09:47=35,774 
25 FRAThomas DavyFRACastorama06:16:32  +  00:09:47=35,774 
26 FRAPascal HerveESPFestina-Andorra06:16:36  +  00:09:51=35,767 
27 BELJim Van De LaerBELLotto-Veta-Caloi06:17:34  +  00:10:49=35,676 
28 FRACharly MottetFRANovemail-Histor-Laser Computer06:17:34  +  00:10:49=35,676 
29 ESPRamon GonzalezESPBanesto06:17:34  +  00:10:49=35,676 
30 FRAJean-François BernardESPBanesto06:17:36  +  00:10:51=35,673 
31 ITAEnrico ZainaITAGewiss-Ballan06:17:45  +  00:11:00=35,659 
32 FRAÉric CaritouxFRAChazal-MBK-Konig06:18:00  +  00:11:15=35,635 
33 COLAlvaro MejiaUSAMotorola06:18:00  +  00:11:15=35,635 
34 DENBo HamburgerNLDTVM-Bison06:18:00  +  00:11:15=35,635 
35 COLFederico FernandezESPKelme-Avianca06:18:51  +  00:12:06=35,555 
36 COLNelson RodriguezITAZG Mobili-Selle Italia06:18:53  +  00:12:08=35,552 
37 ITAMauro-Antonio SantaromitaITAZG Mobili-Selle Italia06:18:53  +  00:12:08=35,552 
38 ITADavide PeronaITAZG Mobili-Selle Italia06:18:53  +  00:12:08=35,552 
39 ESPArsenio GonzálezBELMapei-Clas06:19:07  +  00:12:22=35,530 
40 GERRolf AldagDEUTelecom06:19:07  +  00:12:22=35,530 
41 ITAGianluca BortolamiBELMapei-Clas06:19:31  +  00:12:46=35,493 
42 FRAChristophe ManinFRAChazal-MBK-Konig06:20:27  +  00:13:42=35,405 
43 ESPFederico EchaveBELMapei-Clas06:20:27  +  00:13:42=35,405 
44 SUIBeat ZbergITACarrera Jeans-Tassoni06:20:27  +  00:13:42=35,405 
45 ESPAbraham OlanoBELMapei-Clas06:20:27  +  00:13:42=35,405 
46 DENRolf SørensenITAGB-MG Maglificio06:20:29  +  00:13:44=35,402 
47 NEDErik BreukinkESPO.N.C.E.06:20:29  +  00:13:44=35,402 
48 BELLuc RoosenBELLotto-Veta-Caloi06:20:57  +  00:14:12=35,359 
49 ENGPhil AndersonUSAMotorola06:21:03  +  00:14:18=35,350 
50 MEXMiguel ArroyoFRAChazal-MBK-Konig06:21:21  +  00:14:36=35,322 
51 ITAFranco ChioccioliITAMercatone Uno-Medeghini06:21:33  +  00:14:48=35,303 
52 URSViatcheslav EkimovBELWordperfect06:21:33  +  00:14:48=35,303 
53 ITAFranco VonaITAGB-MG Maglificio06:21:33  +  00:14:48=35,303 
54 AUSNeil StephensESPO.N.C.E.06:21:33  +  00:14:48=35,303 
55 FRAThierry GouvenouFRAGan06:21:33  +  00:14:48=35,303 
56 DENJesper SkibbyNLDTVM-Bison06:21:51  +  00:15:06=35,276 
57 DDRJens HeppnerDEUTelecom06:22:15  +  00:15:30=35,239 
58 FRAPhilippe LouviotFRANovemail-Histor-Laser Computer06:22:15  +  00:15:30=35,239 
59 NORDag Otto LauritzenNLDTVM-Bison06:22:59  +  00:16:14=35,171 
60 URSArturas KasputisFRAChazal-MBK-Konig06:22:59  +  00:16:14=35,171 
61 ESPRaúl AlcaláUSAMotorola06:22:59  +  00:16:14=35,171 
62 ITAFlavio VanzellaITAGB-MG Maglificio06:22:59  +  00:16:14=35,171 
63 FRAPascal ChanteurFRAChazal-MBK-Konig06:23:54  +  00:17:09=35,087 
64 FRAGérard RuéESPBanesto06:23:54  +  00:17:09=35,087 
65 SUILaurent DufauxESPO.N.C.E.06:23:54  +  00:17:09=35,087 
66 BELPeter De ClercqBELLotto-Veta-Caloi06:23:54  +  00:17:09=35,087 
67 BELCarlo BomansITAGB-MG Maglificio06:24:48  +  00:18:03=35,005 
68 FRAFrançois SimonFRACastorama06:24:48  +  00:18:03=35,005 
69 NEDGerrit De VriesFRANovemail-Histor-Laser Computer06:24:54  +  00:18:09=34,996 
70 COLJulio-César CadenaESPKelme-Avianca06:24:54  +  00:18:09=34,996 
71 ITAGiorgio FurlanITAGewiss-Ballan06:25:01  +  00:18:16=34,985 
72 URSDimitri ZhdanovITAPolti-Vaporetto06:26:25  +  00:19:40=34,859 
73 URSDjamolidine AbduzhaparovITAPolti-Vaporetto06:26:25  +  00:19:40=34,859 
74 FRAFrancis MoreauFRAGan06:26:25  +  00:19:40=34,859 
75 ESPJosé UriarteESPBanesto06:26:25  +  00:19:40=34,859 
76 FRAEddy SeigneurFRAGan06:26:25  +  00:19:40=34,859 
77 BELRudy VerdonckBELLotto-Veta-Caloi06:26:25  +  00:19:40=34,859 
78 BELHendrik RedantITAZG Mobili-Selle Italia06:26:52  +  00:20:07=34,818 
79 ESPVicente AparicioESPBanesto06:27:09  +  00:20:24=34,793 
80 NORAtle KvålsvollBELWordperfect06:27:24  +  00:20:39=34,770 
81 SUIRolf JärmannITAGB-MG Maglificio06:29:19  +  00:22:34=34,599 
82 POLCesary ZamanaESPKelme-Avianca06:29:19  +  00:22:34=34,599 
83 BELGuy NulensFRANovemail-Histor-Laser Computer06:29:36  +  00:22:51=34,574 
84 BELMarc SergeantFRANovemail-Histor-Laser Computer06:29:36  +  00:22:51=34,574 
85 ESPFrancisco CabelloESPKelme-Avianca06:29:36  +  00:22:51=34,574 
86 ITAMarco ZenITALampre-Panaria06:29:36  +  00:22:51=34,574 
87 FRAJean-Claude BagotESPFestina-Andorra06:29:36  +  00:22:51=34,574 
88 DDRUwe RaabDEUTelecom06:29:36  +  00:22:51=34,574 
89 ESPHerminio ZabalaESPO.N.C.E.06:29:36  +  00:22:51=34,574 
90 GERChristian HennDEUTelecom06:29:36  +  00:22:51=34,574 
91 BELMarc WautersBELWordperfect06:29:36  +  00:22:51=34,574 
92 URSAndrei TchmilBELLotto-Veta-Caloi06:29:36  +  00:22:51=34,574 
93 BELJohan MuseeuwITAGB-MG Maglificio06:29:36  +  00:22:51=34,574 
94 URSVladislav BobrikITAGewiss-Ballan06:29:36  +  00:22:51=34,574 
95 ESPÁngel EdoESPKelme-Avianca06:29:36  +  00:22:51=34,574 
96 NEDRob MuldersBELWordperfect06:30:03  +  00:23:18=34,534 
97 ITARemo RossiITACarrera Jeans-Tassoni06:30:06  +  00:23:21=34,530 
98 ITAAndrea PeronITAPolti-Vaporetto06:30:06  +  00:23:21=34,530 
99 NEDErwin NijboerESPBanesto06:30:06  +  00:23:21=34,530 
100 BELMario De ClercqBELLotto-Veta-Caloi06:30:06  +  00:23:21=34,530 
101 NEDJean-Paul van PoppelESPFestina-Andorra06:30:22  +  00:23:37=34,506 
102 BELMichel VermoteESPFestina-Andorra06:30:22  +  00:23:37=34,506 
103 FRABruno ThiboutFRACastorama06:31:40  +  00:24:55=34,391 
104 NEDErik DekkerBELWordperfect06:33:01  +  00:26:16=34,273 
105 ESPAlberto LeanizbarrutiaESPO.N.C.E.06:33:15  +  00:26:30=34,253 
106 ESPMarino MonjeESPBanesto06:33:54  +  00:27:09=34,196 
107 SVKJán SvoradaITALampre-Panaria06:34:42  +  00:27:57=34,127 
108 ENGSean YatesUSAMotorola06:35:38  +  00:28:53=34,047 
109 ITAGiovanni FidanzaITAPolti-Vaporetto06:35:38  +  00:28:53=34,047 
110 DDRMario KummerDEUTelecom06:35:38  +  00:28:53=34,047 
111 NZLStephen SwartUSAMotorola06:35:38  +  00:28:53=34,047 
112 DDROlaf LudwigDEUTelecom06:35:38  +  00:28:53=34,047 
113 ITAMassimo GhirottoITAZG Mobili-Selle Italia06:35:38  +  00:28:53=34,047 
114 ITAGuido BontempiITAGewiss-Ballan06:35:38  +  00:28:53=34,047 
115 ITADavide CassaniITAGB-MG Maglificio06:35:38  +  00:28:53=34,047 
116 ESPMelchor MauriESPBanesto06:35:38  +  00:28:53=34,047 
117 ITASilvio MartinelloITAMercatone Uno-Medeghini06:35:38  +  00:28:53=34,047 
118 BELEric Van LanckerBELWordperfect06:35:38  +  00:28:53=34,047 
119 ITAMario ChiesaITACarrera Jeans-Tassoni06:35:38  +  00:28:53=34,047 
120 ITADario BottaroITAGewiss-Ballan06:35:38  +  00:28:53=34,047 
121 AUSStephen HodgeESPFestina-Andorra06:35:38  +  00:28:53=34,047 
122 USAFrankie AndreuUSAMotorola06:35:38  +  00:28:53=34,047 
123 BELMichel DerniesUSAMotorola06:36:44  +  00:29:59=33,952 
124 ITAEros PoliITAMercatone Uno-Medeghini06:41:04  +  00:34:19=33,585 
125 ITARosario FinaITAMercatone Uno-Medeghini06:41:04  +  00:34:19=33,585 
126 NEDJohn TalenITAMercatone Uno-Medeghini06:41:06  +  00:34:21=33,583 
127 ITAMario MantovanITACarrera Jeans-Tassoni06:43:21  +  00:36:36=33,395 
128 URSSerguei OutschakovITAPolti-Vaporetto07:09:57  +  01:03:12=31,329 

Withdrawls: 7
 
Rider
Team
Reason
26  BELWilfried PeetersITAGB-MG MaglificioDid not finish
67  COLOliverio RincónESPO.N.C.E.Did not finish
74  ITAAlessio GallettiITALampre-PanariaDid not finish
77  ITAMarco SerpelliniITALampre-PanariaDid not finish
113  FRALaurent DesbiensFRACastoramaDid not finish
116  FRAEmmanuel MagnienFRACastoramaDid not finish
171  ESPLaudelino CubinoESPKelme-AviancaDid not finish

Todays birthdays.

1877  Antoine Perrichon
1878  Auguste Berthault
1911  Théo Herckenrath
1924  Carlo Lafranchi
1931  Armand Di Caro
1937  Jean-Claude Lebaube
1951  Giovanni Battaglin
1961  Pascal Jules
1962  Jean-Claude Leclercq
1976  Janek Tombak
1978  Francisco Pérez
1983  Dries Devenyns




Visits: